| time (UTC) | temp C | wind direction | speed KPH | gust KPH | rain 1hr cm | rain 24hr cm | rain mn cm | humidity % | barometer mb |
| 20260505034519 | 12 | 161 | 0.0 | 3.2 | 0.00 | 0.00 | 0.00 | 90 | 1014.0 |
| 20260505033018 | 12 | 140 | 0.0 | 4.8 | 0.00 | 0.00 | 0.00 | 89 | 1013.6 |
| 20260505031518 | 12 | 140 | 0.0 | 6.4 | 0.00 | 0.00 | 0.00 | 88 | 1013.6 |
| 20260505030016 | 12 | 140 | 1.6 | 8.0 | 0.00 | 0.00 | 0.00 | 87 | 1013.4 |
| 20260505024516 | 13 | 182 | 0.0 | 6.4 | 0.00 | 0.00 | 0.00 | 85 | 1013.2 |
| 20260505023015 | 13 | 209 | 0.0 | 11.3 | 0.00 | 0.00 | 0.00 | 84 | 1013.1 |
| 20260505021515 | 14 | 227 | 1.6 | 11.3 | 0.00 | 0.00 | 0.00 | 82 | 1013.2 |
| 20260505014514 | 15 | 232 | 1.6 | 12.9 | 0.00 | 0.00 | 0.00 | 80 | 1013.2 |
| 20260505013012 | 16 | 263 | 3.2 | 6.4 | 0.00 | 0.00 | 0.00 | 77 | 1013.3 |
| 20260505011515 | 16 | 130 | 1.6 | 12.9 | 0.00 | 0.00 | 0.00 | 75 | 1013.2 |
| 20260505010011 | 17 | 107 | 3.2 | 9.7 | 0.00 | 0.00 | 0.00 | 74 | 1013.3 |
| 20260505004511 | 17 | 207 | 1.6 | 9.7 | 0.00 | 0.00 | 0.00 | 71 | 1013.2 |
| 20260505003019 | 18 | 237 | 3.2 | 11.3 | 0.00 | 0.00 | 0.00 | 69 | 1013.4 |
| 20260505001510 | 18 | 252 | 1.6 | 9.7 | 0.00 | 0.00 | 0.00 | 69 | 1013.4 |
| 20260505000009 | 18 | 17 | 3.2 | 12.9 | 0.00 | 0.00 | 0.00 | 68 | 1013.3 |
| 20260504234509 | 18 | 134 | 3.2 | 14.5 | 0.00 | 0.00 | 0.00 | 68 | 1013.4 |
| 20260504233009 | 19 | 175 | 4.8 | 14.5 | 0.00 | 0.00 | 0.00 | 66 | 1013.4 |
| 20260504231506 | 19 | 127 | 1.6 | 12.9 | 0.00 | 0.00 | 0.00 | 66 | 1013.5 |
| 20260504230005 | 20 | 199 | 3.2 | 11.3 | 0.00 | 0.00 | 0.00 | 68 | 1013.5 |
| 20260504224504 | 20 | 193 | 3.2 | 16.1 | 0.00 | 0.00 | 0.00 | 64 | 1013.6 |
| 20260504223004 | 19 | 340 | 3.2 | 14.5 | 0.00 | 0.00 | 0.00 | 67 | 1013.6 |
| 20260504221503 | 20 | 156 | 3.2 | 14.5 | 0.00 | 0.00 | 0.00 | 67 | 1013.6 |
| 20260504220004 | 20 | 222 | 3.2 | 14.5 | 0.00 | 0.00 | 0.00 | 70 | 1013.8 |
| 20260504214501 | 20 | 146 | 3.2 | 12.9 | 0.00 | 0.00 | 0.00 | 68 | 1013.7 |
| 20260504213100 | 20 | 113 | 1.6 | 12.9 | 0.00 | 0.00 | 0.00 | 67 | 1013.6 |
| 20260504211601 | 20 | 142 | 3.2 | 14.5 | 0.00 | 0.00 | 0.00 | 70 | 1013.6 |
| 20260504210108 | 20 | 138 | 4.8 | 12.9 | 0.00 | 0.00 | 0.00 | 66 | 1013.7 |
| 20260504204607 | 21 | 11 | 3.2 | 14.5 | 0.00 | 0.00 | 0.00 | 68 | 1013.5 |
| 20260504203106 | 21 | 248 | 3.2 | 16.1 | 0.00 | 0.00 | 0.00 | 65 | 1013.4 |
| 20260504201554 | 21 | 182 | 3.2 | 11.3 | 0.00 | 0.00 | 0.00 | 66 | 1013.3 |
| 20260504200052 | 21 | 248 | 6.4 | 16.1 | 0.00 | 0.00 | 0.00 | 67 | 1013.4 |
| 20260504194550 | 21 | 175 | 3.2 | 14.5 | 0.00 | 0.00 | 0.00 | 65 | 1013.1 |
| 20260504193049 | 21 | 247 | 4.8 | 14.5 | 0.00 | 0.00 | 0.00 | 65 | 1013.2 |
| 20260504191543 | 21 | 161 | 3.2 | 14.5 | 0.00 | 0.00 | 0.00 | 67 | 1013.2 |
| 20260504190059 | 21 | 166 | 3.2 | 11.3 | 0.00 | 0.00 | 0.00 | 67 | 1013.1 |
| 20260504184536 | 21 | 175 | 3.2 | 11.3 | 0.00 | 0.00 | 0.00 | 66 | 1013.1 |
| 20260504183034 | 21 | 136 | 3.2 | 8.0 | 0.00 | 0.00 | 0.00 | 69 | 1013.0 |
| 20260504181629 | 21 | 140 | 3.2 | 12.9 | 0.00 | 0.00 | 0.00 | 69 | 1013.0 |
| 20260504180025 | 21 | 130 | 3.2 | 11.3 | 0.00 | 0.00 | 0.00 | 70 | 1012.9 |
| 20260504174521 | 20 | 133 | 1.6 | 11.3 | 0.00 | 0.00 | 0.00 | 70 | 1012.7 |
| 20260504173016 | 20 | 89 | 1.6 | 9.7 | 0.00 | 0.00 | 0.00 | 70 | 1012.8 |
| 20260504171512 | 18 | 121 | 0.0 | 11.3 | 0.00 | 0.00 | 0.00 | 73 | 1012.9 |
| 20260504081540 | 11 | 214 | 0.0 | 0.0 | 0.00 | 0.00 | 0.00 | 88 | 1010.5 |
| 20260504050019 | 16 | 214 | 0.0 | 1.6 | 0.00 | 0.00 | 0.00 | 68 | 1010.8 |
| 20260504044518 | 17 | 214 | 0.0 | 0.0 | 0.00 | 0.00 | 0.00 | 67 | 1010.7 |
| 20260504043017 | 17 | 214 | 0.0 | 0.0 | 0.00 | 0.00 | 0.00 | 65 | 1010.5 |
| 20260504041516 | 18 | 214 | 0.0 | 0.0 | 0.00 | 0.00 | 0.00 | 66 | 1010.6 |
| 20260504040015 | 19 | 214 | 0.0 | 0.0 | 0.00 | 0.00 | 0.00 | 64 | 1010.5 |